Regional Weather Roundup
Issued by NWS Lake Charles, LA

Home | Current Version | Previous Version | Text Only | Print | Product List | Glossary On
Versions: 1 2 3 4 5 6 7 8 9 10 11 12 13 14 15 16 17 18 19 20 21 22 23 24 25 26 27 28 29 30 31 32 33 34 35 36 37 38 39 40 41 42 43 44 45 46 47 48 49 50
000
ASUS44 KLCH 281110
RWRLCH
RWRLCH
REGIONAL WEATHER ROUNDUP
NATIONAL WEATHER SERVICE LAKE CHARLES LA
600 AM CDT TUE APR 28 2015

Note: "fair" indicates few or no clouds below 12,000 feet with no
significant weather and/or obstructions to visibility.


ACROSS SOUTHEAST TEXAS

CITY           SKY/WX    TMP DP  RH WIND       PRES   REMARKS
BEAUMONT       CLOUDY    64  59  83 NE8       29.79R
BEAUMONT CITY  CLOUDY    62  58  86 E6        29.79S
ORANGE         CLOUDY    63  58  83 N5        29.80S
JASPER         NOT AVBL
$$

ACROSS CENTRAL LOUISIANA

CITY           SKY/WX    TMP DP  RH WIND       PRES   REMARKS
LEESVILLE      CLOUDY    57  56  96 NE8       29.79S FOG
FULLERTON      CLOUDY    60  55  83 VRB6      29.80S
ALEXANDRIA INT CLOUDY    63  57  81 N9        29.82R
ESLER FIELD    CLOUDY    61  54  77 VRB7      29.84R
DERIDDER       PTSUNNY   58  57  95 NE8       29.80F
OAKDALE        DRIZZLE   60  58  95 N6        29.82S
OPELOUSAS      CLOUDY    60  58  92 N7        29.79R
$$

ACROSS SOUTHWEST AND SOUTH CENTRAL LOUISIANA

CITY           SKY/WX    TMP DP  RH WIND       PRES   REMARKS
SULPHUR        CLOUDY    62  61  96 NE5       29.80R
LAKE CHARLES   CLOUDY    61  59  93 N9        29.80R FOG
CHENNAULT INT  NOT AVBL
CAMERON PHI    CLOUDY    64  63  94 N13       29.82R
DEQUINCY       CLOUDY    59  59 100 CALM      29.80R
JENNINGS       CLOUDY    61  61  99 N10G18    29.80R
LAFAYETTE      CLOUDY    62  61  96 NE5       29.78R
NEW IBERIA     CLOUDY    63  60  90 NE7       29.78R
ABBEVILLE      CLOUDY    61  60  96 NE3       29.78R
PATTERSON      NOT AVBL
SALT POINT       N/A     64  63  96 VRB6      29.74R
$$

SELECTED SITES ACROSS THE REGION

CITY           SKY/WX    TMP DP  RH WIND       PRES   REMARKS
HOUSTON BUSH   PTCLDY    63  60  90 N6        29.81R
HOUSTON HOBBY  MOCLDY    66  62  87 CALM      29.80R
GALVESTON      CLOUDY    68  65  90 NE10      29.80R
COLLEGE STAT   CLEAR     62  60  93 NW7       29.85R
CONROE         CLEAR     60  59  96 CALM      29.83R
HUNTSVILLE     CLOUDY    60  59  96 VRB5      29.84R
LUFKIN         CLEAR     58  54  86 N5        29.83R
SHREVEPORT     PTCLDY    53  49  86 N13       29.87R
MONROE         LGT RAIN  55  52  89 N10       29.90S
NATCHEZ MS     CLOUDY    59  48  67 N9        29.81R
BATON ROUGE    CLOUDY    61  58  90 E6        29.79R
N.O. INTL ARPT CLOUDY    65  61  87 E10       29.78R
SLIDELL        CLOUDY    62  59  90 NE5       29.78R
$$

MARINE REPORTS

STATION/POSITION TIME  TEMP    WIND        PRES    VSBY  WAVE
                       AIR SEA DIR/SP/G                  HT/PER
                 (UTC) (F)     (DEG/KT/KT) (MB)    (MI)  (FT/S)
BUOY 30 S HIGH I 1050   68 74   20/ 16/ 17 1007.9R
SEA RIM ST PARK  1100   64      30/  9/ 12 1009.2R
PORT ARTHUR      1000      73   10/  8/ 14 1008.6R
SABINE PASS N    1000   65 74   20/ 12/ 16 1008.6R
TEXAS POINT      NOT AVBL
CALCASIEU PASS   1000   64 75   60/  7/ 10   N/A
LK CHARLES BEACH 1000   62 71              1009.1R
MARSH ISLAND     1000   66      40/ 11/ 14   N/A           0
FRESH WATER LOCK 1000   64 76   60/  8/ 12 1006.7F
AMERADA PASS     1000   68 69   50/  3/  6 1006.9F
$$


USA.gov is the U.S. government's official web portal to all federal, state and local government web resources and services.